FW9444 Weather Reports


Display with metric or nautical units.
time (UTC)temp
F
wind
direction
speed
MPH
gust
MPH
rain 1hr
in
rain 24hr
in
rain mn
in
humidity
%
barometer
mb
20260906073116 78 74 2.0 2.0 0.00 0.00 0.00 81 1009.7
20260906072610 79 17 3.0 6.0 0.00 0.00 0.00 81 1009.7
20260906072106 79 43 1.0 2.0 0.00 0.00 0.00 82 1009.8
20260906071603 79 153 5.0 7.0 0.00 0.00 0.00 82 1009.9
20260906071057 79 40 4.0 6.0 0.00 0.00 0.00 82 1010.0
20260906070554 80 52 5.0 7.0 0.00 0.00 0.00 80 1010.2
20260906070049 80 39 2.0 3.0 0.00 0.00 0.00 81 1009.8
20260906065548 80 80 1.0 1.0 0.00 0.00 0.00 82 1009.6
20260906065044 80 48 1.0 2.0 0.00 0.00 0.00 82 1009.2
20260906064540 80 68 0.0 1.0 0.00 0.00 0.00 83 1009.3
20260906064035 79 79 0.0 0.0 0.00 0.00 0.00 84 1009.4
20260906063530 79 115 0.0 0.0 0.00 0.00 0.00 86 1008.9
20260906063026 79 170 0.0 0.0 0.00 0.00 0.00 86 1008.9
20260906062521 79 174 0.0 0.0 0.00 0.00 0.00 86 1008.9
20260906062015 79 174 0.0 0.0 0.00 0.00 0.00 86 1009.0
20260906061511 79 174 0.0 0.0 0.00 0.00 0.00 85 1009.1
20260906061005 79 174 0.0 0.0 0.00 0.00 0.00 85 1009.4
20260906060502 78 181 0.0 0.0 0.00 0.00 0.00 86 1009.4
20260906055958 78 138 0.0 0.0 0.00 0.00 0.00 86 1009.5
20260906055454 79 137 0.0 0.0 0.00 0.00 0.00 86 1009.0
20260906054950 79 137 0.0 0.0 0.00 0.00 0.00 86 1009.1
20260906054449 79 135 0.0 0.0 0.00 0.00 0.00 86 1009.3
20260906053945 79 170 0.0 0.0 0.00 0.00 0.00 86 1009.5
20260906053441 79 177 0.0 0.0 0.00 0.00 0.00 86 1009.3
20260906052936 79 188 0.0 0.0 0.00 0.00 0.00 86 1009.2
20260906052432 79 187 0.0 0.0 0.00 0.00 0.00 85 1009.1
20260906051929 79 203 0.0 0.0 0.00 0.00 0.00 85 1008.8
20260906051424 78 243 0.0 0.0 0.00 0.00 0.00 85 1008.9
20260906050920 78 180 0.0 0.0 0.00 0.00 0.00 86 1009.0
20260906050419 78 149 0.0 0.0 0.00 0.00 0.00 86 1008.7
20260906045919 78 149 0.0 0.0 0.00 0.00 0.00 85 1008.7
20260906045418 78 149 0.0 0.0 0.00 0.00 0.00 85 1008.6
20260906044914 78 149 0.0 0.0 0.00 0.00 0.00 85 1008.9
20260906044414 78 149 0.0 0.0 0.00 0.00 0.00 84 1009.2
20260906043909 78 149 0.0 0.0 0.00 0.00 0.00 84 1009.1
20260906043405 77 153 0.0 0.0 0.00 0.00 0.00 85 1009.1
20260906042901 77 153 0.0 0.0 0.00 0.00 0.00 85 1009.2
20260906042359 77 153 0.0 0.0 0.00 0.00 0.00 85 1009.1
20260906041855 77 153 0.0 0.0 0.00 0.00 0.00 84 1009.3
20260906041351 77 153 0.0 0.0 0.00 0.00 0.00 84 1009.3
20260906040851 77 153 0.0 0.0 0.00 0.00 0.00 83 1009.0
20260906040346 78 153 0.0 0.0 0.00 0.00 0.00 83 1009.1
20260906035841 78 153 0.0 0.0 0.00 0.00 0.00 83 1009.0
20260906035337 78 153 0.0 0.0 0.00 0.00 0.00 83 1009.3
20260906034832 78 153 0.0 0.0 0.00 0.00 0.00 83 1009.1
20260906034327 78 153 0.0 0.0 0.00 0.00 0.00 82 1009.2
20260906033823 78 153 0.0 0.0 0.00 0.00 0.00 82 1009.1
20260906033321 78 153 0.0 0.0 0.00 0.00 0.00 82 1009.2
20260906032818 78 152 0.0 0.0 0.00 0.00 0.00 81 1009.2
20260906032314 78 152 0.0 0.0 0.00 0.00 0.00 81 1009.2
20260906031809 78 153 0.0 0.0 0.00 0.00 0.00 81 1009.3
20260906031305 78 153 0.0 0.0 0.00 0.00 0.00 81 1009.0
20260906030804 78 153 0.0 0.0 0.00 0.00 0.00 81 1009.1
20260906030300 78 153 0.0 0.0 0.00 0.00 0.00 81 1009.0
20260906025759 79 153 0.0 0.0 0.00 0.00 0.00 81 1009.3
20260906025253 79 88 0.0 0.0 0.00 0.00 0.00 80 1009.1
20260906024752 79 87 0.0 0.0 0.00 0.00 0.00 79 1008.8
20260906024251 79 87 0.0 0.0 0.00 0.00 0.00 79 1009.0
20260906023747 79 87 0.0 0.0 0.00 0.00 0.00 78 1008.7
20260906023242 79 88 0.0 0.0 0.00 0.00 0.00 78 1008.6
20260906022738 80 88 0.0 0.0 0.00 0.00 0.00 77 1008.6
20260906022233 80 88 0.0 0.0 0.00 0.00 0.00 76 1008.6
20260906021729 80 88 0.0 0.0 0.00 0.00 0.00 76 1008.6
20260906021228 80 88 0.0 0.0 0.00 0.00 0.00 75 1008.3
20260906020723 80 88 0.0 0.0 0.00 0.00 0.00 74 1008.3
20260906020218 81 88 0.0 0.0 0.00 0.00 0.00 73 1008.1
20260906015718 81 88 0.0 0.0 0.00 0.00 0.00 72 1008.1
20260906015210 82 88 0.0 0.0 0.00 0.00 0.00 71 1008.3
20260906014710 82 88 0.0 0.0 0.00 0.00 0.00 70 1008.1
20260906014207 81 89 0.0 0.0 0.00 0.00 0.00 71 1008.1
20260906013702 81 89 0.0 0.0 0.00 0.00 0.00 72 1007.7
20260906013157 82 89 0.0 0.0 0.00 0.00 0.00 71 1007.9
20260906012652 82 89 0.0 0.0 0.00 0.00 0.00 71 1008.1
20260906012151 82 89 0.0 0.0 0.00 0.00 0.00 71 1007.9
20260906011648 82 89 0.0 0.0 0.00 0.00 0.00 70 1007.9
20260906011142 82 89 0.0 0.0 0.00 0.00 0.00 69 1007.9
20260906010637 83 89 0.0 0.0 0.00 0.00 0.00 69 1007.8
20260906010134 83 89 0.0 0.0 0.00 0.00 0.00 66 1007.7
20260906005633 83 89 0.0 0.0 0.00 0.00 0.00 66 1007.4
20260906005133 84 89 0.0 0.0 0.00 0.00 0.00 65 1007.6
20260906004632 83 134 0.0 0.0 0.00 0.00 0.00 67 1007.5
20260906004127 84 179 0.0 0.0 0.00 0.00 0.00 68 1007.4
20260906003622 84 152 0.0 0.0 0.00 0.00 0.00 67 1007.4
20260906003118 85 150 0.0 0.0 0.00 0.00 0.00 67 1007.6
20260906002612 85 144 0.0 0.0 0.00 0.00 0.00 67 1007.5
20260906002107 86 133 0.0 0.0 0.00 0.00 0.00 65 1007.5
20260906001602 86 106 0.0 0.0 0.00 0.00 0.00 65 1007.9
20260906001057 87 157 0.0 0.0 0.00 0.00 0.00 67 1007.8
20260906000553 87 151 0.0 0.0 0.00 0.00 0.00 66 1007.7
20260906000048 88 165 0.0 0.0 0.00 0.00 0.00 64 1008.2
20260905235547 89 125 0.0 0.0 0.00 0.00 0.00 63 1008.2
20260905235042 89 107 0.0 0.0 0.00 0.00 0.00 65 1008.0
20260905234537 91 31 3.0 5.0 0.00 0.00 0.00 63 1007.9
20260905234033 95 132 0.0 0.0 0.00 0.00 0.00 58 1007.6
20260905233532 95 31 0.0 0.0 0.00 0.00 0.00 54 1007.3
20260905233027 95 118 0.0 0.0 0.00 0.00 0.00 54 1007.5
20260905232522 96 335 0.0 0.0 0.00 0.00 0.00 53 1007.1
20260905232018 96 223 0.0 0.0 0.00 0.00 0.00 53 1007.3
20260905231513 96 34 0.0 0.0 0.00 0.00 0.00 53 1007.4
20260905231010 96 23 0.0 0.0 0.00 0.00 0.00 53 1007.3
20260905230508 97 99 0.0 0.0 0.00 0.00 0.00 53 1007.2
20260905230007 97 65 0.0 0.0 0.00 0.00 0.00 52 1007.1
20260905225502 98 32 0.0 0.0 0.00 0.00 0.00 52 1007.3
20260905224957 97 171 0.0 0.0 0.00 0.00 0.00 52 1007.2
20260905224452 98 248 0.0 0.0 0.00 0.00 0.00 52 1007.2
20260905223951 98 206 0.0 0.0 0.00 0.00 0.00 51 1007.2
20260905223449 99 333 0.0 0.0 0.00 0.00 0.00 49 1007.5
20260905222944 99 27 0.0 0.0 0.00 0.00 0.00 48 1007.2
20260905222438 99 36 0.0 0.0 0.00 0.00 0.00 46 1007.2
20260905221933 100 54 0.0 0.0 0.00 0.00 0.00 47 1007.2
20260905221430 100 6 0.0 0.0 0.00 0.00 0.00 46 1007.4
20260905220926 100 7 0.0 0.0 0.00 0.00 0.00 46 1007.5
20260905220422 100 304 0.0 0.0 0.00 0.00 0.00 46 1007.5
20260905215921 99 219 0.0 0.0 0.00 0.00 0.00 47 1007.4
20260905215416 96 90 0.0 0.0 0.00 0.00 0.00 54 1007.5
20260905214913 96 79 0.0 0.0 0.00 0.00 0.00 56 1007.5
20260905214408 96 79 0.0 0.0 0.00 0.00 0.00 51 1007.4
20260905213908 97 88 0.0 0.0 0.00 0.00 0.00 51 1007.5
20260905213404 97 78 0.0 0.0 0.00 0.00 0.00 50 1007.5
20260905212859 98 89 0.0 0.0 0.00 0.00 0.00 49 1007.4
20260905212354 100 96 0.0 0.0 0.00 0.00 0.00 47 1007.4
20260905211847 102 149 0.0 0.0 0.00 0.00 0.00 45 1007.5
20260905211343 102 24 0.0 1.0 0.00 0.00 0.00 44 1007.4
20260905210834 103 181 0.0 0.0 0.00 0.00 0.00 44 1007.5
20260905210333 102 109 0.0 0.0 0.00 0.00 0.00 44 1007.6
20260905205833 101 48 1.0 1.0 0.00 0.00 0.00 45 1007.5
20260905205327 103 127 0.0 0.0 0.00 0.00 0.00 43 1007.6
20260905204826 102 194 0.0 0.0 0.00 0.00 0.00 45 1007.5
20260905204323 103 215 1.0 1.0 0.00 0.00 0.00 43 1007.6
20260905203821 102 349 0.0 0.0 0.00 0.00 0.00 44 1007.8
20260905203317 102 96 0.0 0.0 0.00 0.00 0.00 43 1007.8
20260905202813 101 102 0.0 0.0 0.00 0.00 0.00 44 1007.8
20260905202307 102 211 0.0 0.0 0.00 0.00 0.00 42 1008.0
20260905201757 102 66 1.0 2.0 0.00 0.00 0.00 43 1008.2
20260905201252 101 281 0.0 0.0 0.00 0.00 0.00 45 1008.2
20260905200747 101 272 0.0 0.0 0.00 0.00 0.00 44 1008.4
20260905200243 102 86 0.0 0.0 0.00 0.00 0.00 44 1008.5
20260905195741 102 111 0.0 0.0 0.00 0.00 0.00 45 1008.5
20260905195235 101 84 0.0 0.0 0.00 0.00 0.00 47 1008.4
20260905194731 101 3 1.0 2.0 0.00 0.00 0.00 46 1008.6
20260905194226 101 349 2.0 3.0 0.00 0.00 0.00 45 1008.6
20260905193725 101 53 0.0 1.0 0.00 0.00 0.00 45 1009.1
20260905193220 101 96 1.0 3.0 0.00 0.00 0.00 45 1008.8
20260905192716 101 211 0.0 0.0 0.00 0.00 0.00 50 1008.7
20260905192212 100 109 0.0 0.0 0.00 0.00 0.00 49 1009.0
20260905191711 101 358 0.0 1.0 0.00 0.00 0.00 46 1008.9
20260905191209 100 76 0.0 0.0 0.00 0.00 0.00 50 1008.9
20260905190708 99 11 0.0 1.0 0.00 0.00 0.00 48 1009.2
20260905190207 98 312 0.0 0.0 0.00 0.00 0.00 53 1009.4
20260905185706 97 14 0.0 0.0 0.00 0.00 0.00 52 1009.4
20260905185206 99 274 0.0 0.0 0.00 0.00 0.00 51 1009.5
20260905184701 100 48 0.0 0.0 0.00 0.00 0.00 49 1009.4
20260905184200 100 48 0.0 0.0 0.00 0.00 0.00 54 1009.3
20260905183700 98 140 0.0 0.0 0.00 0.00 0.00 57 1009.8
20260905183155 95 87 0.0 0.0 0.00 0.00 0.00 55 1009.7
20260905182654 96 78 0.0 0.0 0.00 0.00 0.00 55 1009.7
20260905182148 96 49 0.0 0.0 0.00 0.00 0.00 54 1009.8
20260905181644 96 88 0.0 0.0 0.00 0.00 0.00 53 1009.7
20260905181143 99 280 0.0 0.0 0.00 0.00 0.00 53 1010.0
20260905180637 99 102 0.0 0.0 0.00 0.00 0.00 51 1009.8
20260905180133 98 43 0.0 0.0 0.00 0.00 0.00 51 1009.8
20260905175632 98 39 0.0 1.0 0.00 0.00 0.00 53 1009.9
20260905175127 98 234 1.0 1.0 0.00 0.00 0.00 54 1009.7
20260905174623 97 186 0.0 0.0 0.00 0.00 0.00 56 1009.8
20260905174118 97 278 0.0 1.0 0.00 0.00 0.00 56 1010.1
20260905173609 98 236 1.0 2.0 0.00 0.00 0.00 55 1010.3
20260905173104 98 68 0.0 0.0 0.00 0.00 0.00 54 1010.1
20260905172603 97 205 0.0 0.0 0.00 0.00 0.00 57 1010.1
20260905172058 97 188 0.0 1.0 0.00 0.00 0.00 56 1010.3
20260905171555 97 208 0.0 0.0 0.00 0.00 0.00 58 1010.3
20260905171050 97 304 0.0 0.0 0.00 0.00 0.00 58 1010.5
20260905170547 96 300 0.0 0.0 0.00 0.00 0.00 58 1010.4
20260905170042 96 29 0.0 1.0 0.00 0.00 0.00 57 1010.5
20260905165537 96 319 0.0 0.0 0.00 0.00 0.00 56 1010.4
20260905165032 96 181 0.0 0.0 0.00 0.00 0.00 59 1010.8
20260905164532 96 163 0.0 0.0 0.00 0.00 0.00 59 1010.6
20260905164027 95 171 0.0 0.0 0.00 0.00 0.00 59 1010.4
20260905163522 95 311 0.0 0.0 0.00 0.00 0.00 58 1010.9
20260905163018 95 161 0.0 0.0 0.00 0.00 0.00 60 1011.0
20260905162514 95 36 0.0 0.0 0.00 0.00 0.00 59 1011.0
20260905162008 94 52 0.0 0.0 0.00 0.00 0.00 60 1011.1
20260905161503 93 47 1.0 2.0 0.00 0.00 0.00 60 1011.2
20260905161000 93 336 0.0 0.0 0.00 0.00 0.00 61 1011.1
20260905160459 92 336 0.0 0.0 0.00 0.00 0.00 62 1011.1
20260905155954 93 265 1.0 2.0 0.00 0.00 0.00 63 1011.3
20260905155449 92 307 0.0 0.0 0.00 0.00 0.00 63 1011.3
20260905154947 92 109 0.0 0.0 0.00 0.00 0.00 64 1011.3
20260905154443 92 289 0.0 0.0 0.00 0.00 0.00 65 1011.6
20260905153938 92 202 1.0 2.0 0.00 0.00 0.00 65 1011.5
20260905153434 91 191 0.0 0.0 0.00 0.00 0.00 67 1011.5
20260905152934 90 331 0.0 0.0 0.00 0.00 0.00 68 1011.5
20260905152434 90 296 1.0 2.0 0.00 0.00 0.00 68 1011.6
20260905151929 89 157 0.0 0.0 0.00 0.00 0.00 72 1011.3
20260905151424 88 198 0.0 0.0 0.00 0.00 0.00 74 1011.6
20260905150925 88 215 1.0 1.0 0.00 0.00 0.00 74 1011.3
20260905150424 87 358 1.0 1.0 0.00 0.00 0.00 74 1011.3
20260905145921 87 269 0.0 0.0 0.00 0.00 0.00 75 1011.5
20260905145415 87 300 1.0 1.0 0.00 0.00 0.00 74 1011.3
20260905144910 86 200 0.0 1.0 0.00 0.00 0.00 78 1011.1
20260905144405 85 306 0.0 0.0 0.00 0.00 0.00 79 1011.5
20260905143904 85 58 1.0 1.0 0.00 0.00 0.00 78 1011.5
20260905143358 84 131 0.0 0.0 0.00 0.00 0.00 80 1011.6
20260905142858 84 151 0.0 0.0 0.00 0.00 0.00 83 1011.6
20260905142356 84 151 1.0 1.0 0.00 0.00 0.00 83 1011.5
20260905141852 83 150 0.0 0.0 0.00 0.00 0.00 83 1011.7
20260905141347 82 149 0.0 0.0 0.00 0.00 0.00 86 1011.6
20260905140844 82 1 0.0 0.0 0.00 0.00 0.00 85 1011.7
20260905140344 82 149 0.0 0.0 0.00 0.00 0.00 86 1011.9
20260905135842 81 124 0.0 0.0 0.00 0.00 0.00 87 1011.8
20260905135338 81 88 0.0 0.0 0.00 0.00 0.00 88 1011.9
20260905134833 80 82 0.0 0.0 0.00 0.00 0.00 89 1011.7
20260905134327 80 58 0.0 0.0 0.00 0.00 0.00 89 1011.7
20260905133827 80 59 0.0 0.0 0.00 0.00 0.00 91 1011.9
20260905133322 79 59 0.0 0.0 0.00 0.00 0.00 91 1011.9
20260905132821 79 58 0.0 0.0 0.00 0.00 0.00 91 1011.9
20260905132317 78 58 0.0 0.0 0.00 0.00 0.00 92 1011.8
20260905131811 78 58 0.0 0.0 0.00 0.00 0.00 92 1011.9
20260905131307 78 58 0.0 0.0 0.00 0.00 0.00 93 1011.9
20260905130801 77 57 0.0 0.0 0.00 0.00 0.00 93 1012.1
20260905130300 76 55 0.0 0.0 0.00 0.00 0.00 94 1012.0
20260905125756 76 54 0.0 0.0 0.00 0.00 0.00 94 1012.1
20260905125250 76 54 0.0 0.0 0.00 0.00 0.00 94 1012.1
20260905124747 75 53 0.0 0.0 0.00 0.00 0.00 95 1011.8
20260905124243 75 53 0.0 0.0 0.00 0.00 0.00 95 1011.9
20260905123738 75 53 0.0 0.0 0.00 0.00 0.00 95 1012.1
20260905123235 75 48 0.0 0.0 0.00 0.00 0.00 95 1011.8
20260905122734 75 47 0.0 0.0 0.00 0.00 0.00 95 1012.0
20260905122229 74 47 0.0 0.0 0.00 0.00 0.00 96 1012.0
20260905121724 74 47 0.0 0.0 0.00 0.00 0.00 95 1011.9
20260905121220 74 47 0.0 0.0 0.00 0.00 0.00 95 1011.8
20260905120719 74 47 0.0 0.0 0.00 0.00 0.00 95 1011.8
20260905120214 73 47 0.0 0.0 0.00 0.00 0.00 96 1011.7
20260905115714 73 47 0.0 0.0 0.00 0.00 0.00 95 1011.5
20260905115209 73 46 0.0 0.0 0.00 0.00 0.00 95 1011.1
20260905114708 73 46 0.0 0.0 0.00 0.00 0.00 95 1011.2
20260905114206 73 44 0.0 0.0 0.00 0.00 0.00 95 1011.0
20260905113701 73 44 0.0 0.0 0.00 0.00 0.00 95 1010.8
20260905113157 73 44 0.0 0.0 0.00 0.00 0.00 95 1010.8
20260905112656 73 44 0.0 0.0 0.00 0.00 0.00 95 1011.0
20260905112152 73 43 0.0 0.0 0.00 0.00 0.00 95 1011.0
20260905111652 73 43 0.0 0.0 0.00 0.00 0.00 95 1010.9
20260905111151 73 43 0.0 0.0 0.00 0.00 0.00 95 1010.9
20260905110650 73 43 0.0 0.0 0.00 0.00 0.00 95 1010.6
20260905110146 73 43 0.0 0.0 0.00 0.00 0.00 95 1010.6
20260905105641 73 43 0.0 0.0 0.00 0.00 0.00 95 1010.6
20260905105140 73 43 0.0 0.0 0.00 0.00 0.00 95 1010.9
20260905104635 73 43 0.0 0.0 0.00 0.00 0.00 95 1010.6
20260905104130 73 43 0.0 0.0 0.00 0.00 0.00 95 1010.6
20260905103626 73 43 0.0 0.0 0.00 0.00 0.00 95 1010.6
20260905103121 74 43 0.0 0.0 0.00 0.00 0.00 95 1010.5
20260905102617 73 43 0.0 0.0 0.00 0.00 0.00 95 1010.4
20260905102114 74 43 0.0 0.0 0.00 0.00 0.00 95 1010.3
20260905101612 73 43 0.0 0.0 0.00 0.00 0.00 94 1010.3
20260905101110 73 43 0.0 0.0 0.00 0.00 0.00 94 1010.4
20260905100607 73 43 0.0 0.0 0.00 0.00 0.00 94 1010.3
20260905100101 74 43 0.0 0.0 0.00 0.00 0.00 94 1010.3
20260905095555 73 43 0.0 0.0 0.00 0.00 0.00 94 1010.2
20260905095051 73 43 0.0 0.0 0.00 0.00 0.00 94 1010.5
20260905094546 74 43 0.0 0.0 0.00 0.00 0.00 94 1010.3
20260905094045 74 43 0.0 0.0 0.00 0.00 0.00 94 1010.2
20260905093545 74 43 0.0 0.0 0.00 0.00 0.00 94 1010.3
20260905093042 74 43 0.0 0.0 0.00 0.00 0.00 94 1010.1
20260905092541 74 43 0.0 0.0 0.00 0.00 0.00 94 1010.3
20260905092038 74 43 0.0 0.0 0.00 0.00 0.00 94 1010.0
20260905091536 74 43 0.0 0.0 0.00 0.00 0.00 94 1010.1
20260905091031 74 43 0.0 0.0 0.00 0.00 0.00 94 1010.1
20260905090531 75 43 0.0 0.0 0.00 0.00 0.00 94 1010.1
20260905090026 74 43 0.0 0.0 0.00 0.00 0.00 94 1010.1
20260905085524 74 43 0.0 0.0 0.00 0.00 0.00 94 1010.1
20260905085021 74 43 0.0 0.0 0.00 0.00 0.00 94 1010.1
20260905084520 74 43 0.0 0.0 0.00 0.00 0.00 94 1010.1
20260905084015 74 44 0.0 0.0 0.00 0.00 0.00 94 1010.0
20260905083510 74 44 0.0 0.0 0.00 0.00 0.00 94 1010.1
20260905083007 74 44 0.0 0.0 0.00 0.00 0.00 94 1010.3
20260905082502 74 44 0.0 0.0 0.00 0.00 0.00 94 1010.1
20260905081957 74 44 0.0 0.0 0.00 0.00 0.00 94 1010.0
20260905081452 74 44 0.0 0.0 0.00 0.00 0.00 94 1010.4
20260905080951 75 44 0.0 0.0 0.00 0.00 0.00 94 1010.2
20260905080446 74 44 0.0 0.0 0.00 0.00 0.00 94 1010.1
20260905075944 74 44 0.0 0.0 0.00 0.00 0.00 93 1009.8
20260905075439 74 44 0.0 0.0 0.00 0.00 0.00 93 1009.7
20260905074938 74 44 0.0 0.0 0.00 0.00 0.00 93 1009.8
20260905074434 75 44 0.0 0.0 0.00 0.00 0.00 93 1009.8
20260905073930 74 44 0.0 0.0 0.00 0.00 0.00 93 1009.8
20260905073425 75 44 0.0 0.0 0.00 0.00 0.00 93 1009.9